• Join FlightAware (Why Join?)
  • Login
  • US Flag GB Flag 
04:06 EDT


 

Airport Tracker/Info


-or-


 

Live Flight TrackerFlight Track Log ✈ AWE3988 ✈ 28-Apr-2013 ✈ KPHL - KMHT

Flight Track Log - Related Links

Times and Time Zones

All times are in EDT time to prevent confusion due to time zone crossing. See the AWE3988 flight status page for this flight to view local times or setup timezone preferences in your user account.

Time Position Orientation Groundspeed Altitude Reporting Facility
EDT Latitude Longitude Course Direction KTS MPH feet Rate Location/Type
14:15 39.8667 -75.2833 37° Northeast 166 191 800  Level Philadelphia TRACON
14:16 39.8167 -75.3333 218° Southwest 202 232 3,800 2,760 Climbing Philadelphia TRACON
14:17 39.7667 -75.3667 207° Southwest 209 241 7,000 2,700 Climbing Philadelphia TRACON
14:18 39.8120 -74.8433 105° East  Level FlightAware Approximate
14:18 39.7333 -75.3167 131° Southeast 263 303 9,300  Level Philadelphia TRACON
14:19 39.7857 -74.7117 105° East  Level FlightAware Approximate
14:19 39.7500 -75.2333 75° East 322 371 10,200  Level Philadelphia TRACON
14:20 39.8588 -74.6246 37° Northeast  Level FlightAware Approximate
14:20 39.7667 -75.1000 81° East 354 407 11,800  Level Philadelphia TRACON
14:22 39.7797 -74.8658 86° East 380 437 12,000 480 Climbing New York Center
14:23 39.7992 -74.7267 80° East 394 453 13,300 1,620 Climbing New York Center
14:24 39.8772 -74.6364 42° Northeast 358 412 15,300 1,980 Climbing New York Center
14:25 39.9633 -74.5517 37° Northeast 365 420 17,300 1,680 Climbing New York Center
14:26 40.0386 -74.4772 37° Northeast 365 420 18,800 1,320 Climbing New York Center
14:27 40.1311 -74.3844 37° Northeast 376 433 20,000 1,200 Climbing New York Center
14:28 40.2194 -74.2964 37° Northeast 381 438 21,200 1,080 Climbing New York Center
14:29 40.3094 -74.2058 37° Northeast 393 452 22,200 960 Climbing New York Center
14:30 40.4153 -74.1539 20° North 400 460 23,200 1,260 Climbing New York Center
14:31 40.5239 -74.1403 North 386 444 24,800 1,560 Climbing New York Center
14:32 40.6286 -74.1233 North 381 438 26,400 1,080 Climbing New York Center
14:33 40.7333 -74.1094 North 376 433 27,000 180 Climbing New York Center
14:35 40.9169 -74.0853 North 412 474 27,000  Level Boston Center
14:36 41.0278 -74.0689 North 406 467 27,000  Level Boston Center
14:37 41.1364 -74.0494 North 401 461 27,000  Level Boston Center
14:38 41.2450 -74.0331 North 396 456 27,000  Level Boston Center
14:39 41.3514 -74.0192 North 390 449 27,000  Level Boston Center
14:40 41.4581 -74.0022 North 385 443 27,000  Level Boston Center
14:41 41.5625 -73.9856 North 385 443 27,000  Level Boston Center
14:42 41.6689 -73.9686 North 385 443 27,000  Level Boston Center
14:43 41.7733 -73.9544 North 385 443 27,000  Level Boston Center
14:44 41.8819 -73.9403 North 367 422 27,000  Level Boston Center
14:45 41.9844 -73.9147 10° North 367 422 27,000 -240 Level Boston Center
14:46 42.0547 -73.7961 51° Northeast 364 419 26,600 -900 Descending Boston Center
14:47 42.1186 -73.6717 55° Northeast 393 452 25,200 -1,500 Descending Boston Center
14:48 42.1803 -73.5439 57° Northeast 407 468 23,700 -1,500 Descending Boston Center
14:49 42.2442 -73.4161 56° Northeast 412 474 22,200 -1,380 Descending Boston Center
14:50 42.3075 -73.2908 56° Northeast 393 452 21,000 -600 Descending Boston Center
14:51 42.3625 -73.1733 58° Northeast 397 457 21,000  Level Boston Center
14:52 42.4194 -73.0589 56° Northeast 391 450 21,000  Level Boston Center
14:53 42.4764 -72.9411 57° Northeast 381 438 21,000  Level Boston Center
14:54 42.5311 -72.8261 57° Northeast 370 426 21,000  Level Boston Center
14:55 42.5878 -72.7108 56° Northeast 365 420 21,000 -900 Level Boston Center
14:56 42.6317 -72.5925 63° Northeast 357 411 19,300 -1,800 Descending Boston Center
14:57 42.6650 -72.4628 71° East 351 404 17,400 -2,100 Descending Boston Center
14:58 42.7025 -72.3356 68° East 351 404 15,200 -2,400 Descending Boston Center
14:59 42.7442 -72.2083 66° East 338 389 12,600 -2,160 Descending Boston Center
15:00 42.7917 -72.1203 54° Northeast 323 372 10,900 -1,500 Descending Boston Center
15:01 42.8436 -72.0239 54° Northeast 291 335 9,400 -1,440 Descending Boston Center
15:02 42.8953 -71.9356 51° Northeast 274 315 7,800 -1,620 Descending Boston Center
15:03 42.9428 -71.8417 55° Northeast 274 315 6,200 -1,500 Descending Boston Center
15:04 42.9736 -71.7619 62° Northeast 264 304 4,800 -1,140 Descending Boston Center
15:05 43.0064 -71.6622 66° East 264 304 4,000 -1,020 Descending Boston Center
15:06 43.0244 -71.5881 72° East 242 278 2,800 -900 Descending Boston Center
15:07 43.0342 -71.5000 81° East 218 251 2,200 -600 Descending Boston Center